Simultaneous Nadir Overpasses (SNOs) Predictions

Prediction of SNOs near US between AQUA and NPP Satellite Orbit:

Table of predicted SNOs near US for the next 10.0 days since TLE Epoch: 8/28/2021
Index Date (AQUA) Time (AQUA) AQUA Lat,Lon Date (NPP) Time (NPP) NPP Lat,Lon Distance(km) Time Diff (sec)
1 08/28/2021 18:16:49 49.96, -80.17 08/28/2021 18:11:06 49.68, -81.87 125.67 343
2 08/28/2021 19:55:42 49.95,-104.89 08/28/2021 19:52:34 49.57,-107.20 170.93 188
3 08/28/2021 21:30:53 36.71,-125.00 08/28/2021 21:30:13 36.19,-127.69 247.82 40
4 08/31/2021 09:23:12 24.43,-113.19 08/31/2021 09:16:05 24.54,-113.73 55.57 427
5 09/03/2021 06:30:15 46.36, -65.03 09/03/2021 06:31:09 46.79, -67.12 166.86 54
6 09/03/2021 08:08:08 49.93, -88.34 09/03/2021 08:11:36 50.42, -90.95 193.69 208
7 09/03/2021 09:47:01 49.93,-113.06 09/03/2021 09:53:03 50.59,-116.25 238.01 362
8 09/05/2021 19:06:19 49.98, -92.55 09/05/2021 19:01:54 49.61, -94.53 148.14 265
9 09/05/2021 20:45:11 49.98,-117.27 09/05/2021 20:43:22 49.56,-119.88 193.45 109
